| time (UTC) | temp F | wind direction | speed MPH | gust MPH | rain 1hr in | rain 24hr in | rain mn in | humidity % | barometer mb |
| 20260831134708 | 73 | 281 | 6.0 | 11.0 | 0.00 | 0.00 | 0.00 | 48 | 969.2 |
| 20260831134233 | 72 | 114 | 4.0 | 11.0 | 0.00 | 0.00 | 0.00 | 48 | 969.4 |
| 20260831133823 | 72 | 114 | 6.0 | 16.0 | 0.00 | 0.00 | 0.00 | 52 | 969.4 |
| 20260831133343 | 72 | 114 | 5.0 | 22.0 | 0.00 | 0.00 | 0.00 | 52 | 969.1 |
| 20260831132938 | 72 | 152 | 4.0 | 18.0 | 0.00 | 0.00 | 0.00 | 52 | 969.2 |
| 20260831132503 | 70 | 259 | 5.0 | 22.0 | 0.00 | 0.00 | 0.00 | 51 | 969.4 |
| 20260831132058 | 70 | 259 | 3.0 | 11.0 | 0.00 | 0.00 | 0.00 | 51 | 969.4 |
| 20260831131619 | 70 | 276 | 9.0 | 14.0 | 0.00 | 0.00 | 0.00 | 51 | 969.5 |
| 20260831131213 | 71 | 315 | 9.0 | 20.0 | 0.00 | 0.00 | 0.00 | 51 | 969.5 |
| 20260831130723 | 71 | 352 | 5.0 | 20.0 | 0.00 | 0.00 | 0.00 | 51 | 969.6 |
| 20260831130253 | 71 | 129 | 9.0 | 22.0 | 0.00 | 0.00 | 0.00 | 51 | 969.5 |
| 20260831125828 | 71 | 228 | 14.0 | 18.0 | 0.00 | 0.00 | 0.00 | 51 | 969.6 |
| 20260831125358 | 72 | 228 | 6.0 | 18.0 | 0.00 | 0.00 | 0.00 | 51 | 969.4 |
| 20260831124943 | 72 | 133 | 4.0 | 18.0 | 0.00 | 0.00 | 0.00 | 56 | 969.4 |
| 20260831124508 | 71 | 133 | 7.0 | 18.0 | 0.00 | 0.00 | 0.00 | 56 | 969.6 |
| 20260831124048 | 71 | 296 | 7.0 | 16.0 | 0.00 | 0.00 | 0.00 | 56 | 969.5 |
| 20260831123613 | 71 | 311 | 2.0 | 25.0 | 0.00 | 0.00 | 0.00 | 56 | 969.3 |
| 20260831123138 | 69 | 311 | 2.0 | 7.0 | 0.00 | 0.00 | 0.00 | 56 | 969.7 |
| 20260831122718 | 70 | 311 | 12.0 | 13.0 | 0.00 | 0.00 | 0.00 | 56 | 969.5 |
| 20260831122251 | 70 | 186 | 14.0 | 18.0 | 0.00 | 0.00 | 0.00 | 56 | 969.4 |
| 20260831121838 | 70 | 153 | 6.0 | 13.0 | 0.00 | 0.00 | 0.00 | 56 | 969.7 |
| 20260831121403 | 69 | 329 | 6.0 | 13.0 | 0.00 | 0.00 | 0.00 | 56 | 969.5 |
| 20260831120928 | 69 | 143 | 6.0 | 23.0 | 0.00 | 0.00 | 0.00 | 56 | 969.7 |
| 20260831120458 | 69 | 143 | 3.0 | 1.0 | 0.00 | 0.00 | 0.00 | 56 | 969.7 |
| 20260831120028 | 69 | 143 | 5.0 | 1.0 | 0.00 | 0.00 | 0.00 | 56 | 969.4 |
| 20260831115527 | 69 | 32 | 9.0 | 7.0 | 0.00 | 0.00 | 0.00 | 58 | 969.6 |
| 20260831115118 | 69 | 32 | 9.0 | 7.0 | 0.00 | 0.00 | 0.00 | 58 | 969.6 |
| 20260831114633 | 69 | 15 | 9.0 | 7.0 | 0.00 | 0.00 | 0.00 | 58 | 969.6 |
| 20260831114218 | 68 | 15 | 5.0 | 7.0 | 0.00 | 0.00 | 0.00 | 59 | 969.6 |
| 20260831113753 | 68 | 319 | 3.0 | 13.0 | 0.00 | 0.00 | 0.00 | 58 | 969.7 |
| 20260831113323 | 68 | 308 | 6.0 | 14.0 | 0.00 | 0.00 | 0.00 | 58 | 969.5 |
| 20260831112858 | 68 | 308 | 5.0 | 16.0 | 0.00 | 0.00 | 0.00 | 58 | 969.5 |
| 20260831112403 | 69 | 320 | 5.0 | 16.0 | 0.00 | 0.00 | 0.00 | 57 | 969.6 |
| 20260831111933 | 70 | 320 | 4.0 | 16.0 | 0.00 | 0.00 | 0.00 | 57 | 969.7 |
| 20260831111513 | 69 | 320 | 4.0 | 16.0 | 0.00 | 0.00 | 0.00 | 59 | 969.9 |
| 20260831111038 | 70 | 128 | 7.0 | 20.0 | 0.00 | 0.00 | 0.00 | 59 | 969.7 |
| 20260831110558 | 70 | 139 | 5.0 | 16.0 | 0.00 | 0.00 | 0.00 | 59 | 969.6 |
| 20260831110138 | 70 | 158 | 13.0 | 22.0 | 0.00 | 0.00 | 0.00 | 59 | 969.7 |
| 20260831105708 | 69 | 110 | 13.0 | 22.0 | 0.00 | 0.00 | 0.00 | 59 | 969.7 |
| 20260831105218 | 69 | 280 | 5.0 | 22.0 | 0.00 | 0.00 | 0.00 | 63 | 969.9 |
| 20260831104759 | 69 | 280 | 10.0 | 22.0 | 0.00 | 0.00 | 0.00 | 63 | 969.8 |
| 20260831104348 | 69 | 287 | 7.0 | 29.0 | 0.00 | 0.00 | 0.00 | 63 | 969.7 |
| 20260831103859 | 69 | 210 | 2.0 | 14.0 | 0.00 | 0.00 | 0.00 | 63 | 969.7 |
| 20260831103408 | 68 | 322 | 6.0 | 14.0 | 0.00 | 0.00 | 0.00 | 64 | 969.6 |
| 20260831102918 | 67 | 324 | 6.0 | 16.0 | 0.00 | 0.00 | 0.00 | 64 | 969.6 |
| 20260831102453 | 67 | 303 | 6.0 | 16.0 | 0.00 | 0.00 | 0.00 | 68 | 969.7 |
| 20260831102033 | 67 | 292 | 7.0 | 16.0 | 0.00 | 0.00 | 0.00 | 68 | 969.6 |
| 20260831101603 | 68 | 211 | 6.0 | 16.0 | 0.00 | 0.00 | 0.00 | 68 | 969.6 |
| 20260831101123 | 68 | 243 | 6.0 | 16.0 | 0.00 | 0.00 | 0.00 | 68 | 969.5 |
| 20260831100633 | 66 | 306 | 11.0 | 22.0 | 0.00 | 0.00 | 0.00 | 68 | 969.7 |
| 20260831100158 | 66 | 310 | 6.0 | 11.0 | 0.00 | 0.00 | 0.00 | 68 | 969.8 |
| 20260831095739 | 67 | 336 | 6.0 | 13.0 | 0.00 | 0.00 | 0.00 | 68 | 969.8 |
| 20260831095319 | 66 | 315 | 5.0 | 14.0 | 0.00 | 0.00 | 0.00 | 68 | 969.8 |
| 20260831094843 | 66 | 293 | 9.0 | 14.0 | 0.00 | 0.00 | 0.00 | 68 | 969.7 |
| 20260831094408 | 66 | 113 | 2.0 | 14.0 | 0.00 | 0.00 | 0.00 | 72 | 969.8 |
| 20260831093958 | 66 | 113 | 0.0 | 11.0 | 0.00 | 0.00 | 0.00 | 71 | 969.7 |
| 20260831093528 | 65 | 240 | 2.0 | 13.0 | 0.00 | 0.00 | 0.00 | 71 | 970.1 |
| 20260831093113 | 65 | 87 | 5.0 | 9.0 | 0.00 | 0.00 | 0.00 | 71 | 969.9 |
| 20260831092638 | 65 | 87 | 7.0 | 13.0 | 0.00 | 0.00 | 0.00 | 71 | 970.0 |
| 20260831092223 | 66 | 328 | 3.0 | 13.0 | 0.00 | 0.00 | 0.00 | 71 | 969.9 |
| 20260831091808 | 65 | 330 | 3.0 | 9.0 | 0.00 | 0.00 | 0.00 | 71 | 969.9 |
| 20260831091339 | 68 | 114 | 3.0 | 9.0 | 0.00 | 0.00 | 0.00 | 71 | 970.1 |
| 20260831090923 | 68 | 94 | 3.0 | 25.0 | 0.00 | 0.00 | 0.00 | 71 | 969.8 |
| 20260831090458 | 66 | 292 | 4.0 | 11.0 | 0.00 | 0.00 | 0.00 | 71 | 970.0 |
| 20260831090019 | 66 | 355 | 3.0 | 16.0 | 0.00 | 0.00 | 0.00 | 75 | 969.8 |
| 20260831085539 | 65 | 331 | 3.0 | 16.0 | 0.00 | 0.00 | 0.00 | 75 | 969.8 |
| 20260831085113 | 65 | 333 | 4.0 | 7.0 | 0.00 | 0.00 | 0.00 | 75 | 969.7 |
| 20260831084633 | 65 | 305 | 5.0 | 9.0 | 0.00 | 0.00 | 0.00 | 75 | 969.8 |
| 20260831084208 | 65 | 307 | 11.0 | 16.0 | 0.00 | 0.00 | 0.00 | 75 | 969.7 |
| 20260831083753 | 64 | 307 | 11.0 | 16.0 | 0.00 | 0.00 | 0.00 | 75 | 969.8 |
| 20260831083333 | 64 | 329 | 10.0 | 22.0 | 0.00 | 0.00 | 0.00 | 75 | 969.8 |
| 20260831082913 | 64 | 321 | 11.0 | 27.0 | 0.00 | 0.00 | 0.00 | 75 | 969.7 |
| 20260831082508 | 64 | 350 | 0.0 | 27.0 | 0.00 | 0.00 | 0.00 | 75 | 969.8 |
| 20260831082019 | 64 | 263 | 0.0 | 27.0 | 0.00 | 0.00 | 0.00 | 100 | 970.0 |
| 20260831081548 | 63 | 284 | 4.0 | 14.0 | 0.00 | 0.00 | 0.00 | 78 | 969.9 |
| 20260831081111 | 63 | 310 | 7.0 | 14.0 | 0.00 | 0.00 | 0.00 | 86 | 969.5 |
| 20260831080658 | 63 | 207 | 5.0 | 20.0 | 0.00 | 0.00 | 0.00 | 86 | 969.5 |
| 20260831080243 | 63 | 328 | 5.0 | 11.0 | 0.00 | 0.00 | 0.00 | 86 | 969.5 |
| 20260831075828 | 63 | 328 | 4.0 | 27.0 | 0.00 | 0.00 | 0.00 | 86 | 969.5 |
| 20260831075358 | 63 | 328 | 5.0 | 27.0 | 0.00 | 0.00 | 0.00 | 86 | 969.7 |
| 20260831074928 | 64 | 113 | 5.0 | 7.0 | 0.00 | 0.00 | 0.00 | 86 | 969.4 |
| 20260831074518 | 64 | 113 | 5.0 | 7.0 | 0.00 | 0.00 | 0.00 | 86 | 969.5 |
| 20260831074101 | 62 | 73 | 5.0 | 9.0 | 0.00 | 0.00 | 0.00 | 86 | 969.4 |
| 20260831073638 | 62 | 262 | 5.0 | 5.0 | 0.00 | 0.00 | 0.00 | 86 | 969.7 |
| 20260831073203 | 62 | 187 | 3.0 | 5.0 | 0.00 | 0.00 | 0.00 | 86 | 969.2 |
| 20260831072723 | 62 | 308 | 6.0 | 0.0 | 0.00 | 0.00 | 0.00 | 90 | 969.2 |
| 20260831072259 | 61 | 355 | 2.0 | 7.0 | 0.00 | 0.00 | 0.00 | 90 | 969.2 |
| 20260831071833 | 61 | 297 | 4.0 | 3.0 | 0.00 | 0.00 | 0.00 | 90 | 969.2 |
| 20260831071359 | 61 | 307 | 0.0 | 3.0 | 0.00 | 0.00 | 0.00 | 91 | 969.3 |
| 20260831070928 | 61 | 307 | 4.0 | 7.0 | 0.00 | 0.00 | 0.00 | 91 | 969.3 |
| 20260831070448 | 61 | 307 | 2.0 | 9.0 | 0.00 | 0.00 | 0.00 | 94 | 969.2 |
| 20260831070028 | 61 | 307 | 4.0 | 9.0 | 0.00 | 0.00 | 0.00 | 94 | 969.0 |
| 20260831065618 | 61 | 307 | 4.0 | 13.0 | 0.00 | 0.00 | 0.00 | 94 | 968.9 |
| 20260831065139 | 61 | 307 | 6.0 | 7.0 | 0.00 | 0.00 | 0.00 | 94 | 968.8 |
| 20260831064728 | 61 | 307 | 0.0 | 16.0 | 0.00 | 0.00 | 0.00 | 94 | 968.7 |
| 20260831064313 | 61 | 307 | 4.0 | 16.0 | 0.00 | 0.00 | 0.00 | 94 | 968.7 |
| 20260831063848 | 61 | 307 | 5.0 | 20.0 | 0.00 | 0.00 | 0.00 | 94 | 968.7 |
| 20260831063428 | 61 | 104 | 5.0 | 20.0 | 0.00 | 0.00 | 0.00 | 94 | 968.6 |
| 20260831063008 | 61 | 104 | 6.0 | 9.0 | 0.00 | 0.00 | 0.00 | 94 | 968.6 |
| 20260831062543 | 60 | 104 | 3.0 | 9.0 | 0.00 | 0.00 | 0.00 | 94 | 968.7 |
| 20260831062058 | 60 | 104 | 3.0 | 5.0 | 0.00 | 0.00 | 0.00 | 94 | 968.6 |
| 20260831061618 | 60 | 104 | 3.0 | 5.0 | 0.00 | 0.00 | 0.00 | 94 | 968.5 |
| 20260831061133 | 60 | 104 | 2.0 | 9.0 | 0.00 | 0.00 | 0.00 | 94 | 968.5 |
| 20260831060708 | 60 | 104 | 2.0 | 9.0 | 0.00 | 0.00 | 0.00 | 94 | 968.3 |
| 20260831060248 | 60 | 104 | 3.0 | 9.0 | 0.00 | 0.00 | 0.00 | 94 | 968.5 |
| 20260831055833 | 60 | 104 | 7.0 | 9.0 | 0.00 | 0.00 | 0.00 | 94 | 968.5 |
| 20260831055359 | 60 | 104 | 2.0 | 9.0 | 0.00 | 0.00 | 0.00 | 94 | 968.4 |
| 20260831054933 | 60 | 104 | 1.0 | 5.0 | 0.00 | 0.00 | 0.00 | 94 | 968.3 |
| 20260831054518 | 60 | 104 | 1.0 | 0.0 | 0.00 | 0.00 | 0.00 | 94 | 968.1 |
| 20260831054053 | 60 | 104 | 1.0 | 0.0 | 0.00 | 0.00 | 0.00 | 94 | 968.0 |
| 20260831053643 | 60 | 104 | 0.0 | 0.0 | 0.00 | 0.00 | 0.00 | 94 | 968.0 |
| 20260831053203 | 60 | 104 | 0.0 | 1.0 | 0.00 | 0.00 | 0.00 | 94 | 967.9 |
| 20260831052738 | 60 | 104 | 0.0 | 1.0 | 0.00 | 0.00 | 0.00 | 94 | 968.0 |
| 20260831052243 | 60 | 104 | 0.0 | 1.0 | 0.00 | 0.00 | 0.00 | 94 | 967.9 |
| 20260831051758 | 60 | 104 | 0.0 | 1.0 | 0.00 | 0.00 | 0.00 | 94 | 967.9 |
| 20260831051323 | 60 | 104 | 1.0 | 1.0 | 0.00 | 0.00 | 0.00 | 94 | 967.9 |
| 20260831050853 | 60 | 104 | 1.0 | 1.0 | 0.00 | 0.00 | 0.00 | 94 | 967.9 |
| 20260831050413 | 60 | 104 | 1.0 | 9.0 | 0.00 | 0.00 | 0.00 | 94 | 967.9 |
| 20260831045953 | 60 | 104 | 0.0 | 1.0 | 0.00 | 0.00 | 0.00 | 94 | 968.0 |
| 20260831045512 | 60 | 104 | 0.0 | 0.0 | 0.00 | 0.00 | 0.00 | 94 | 967.7 |
| 20260831045033 | 60 | 104 | 0.0 | 0.0 | 0.00 | 0.00 | 0.00 | 94 | 967.6 |
| 20260831044606 | 60 | 104 | 1.0 | 1.0 | 0.00 | 0.00 | 0.00 | 94 | 967.5 |
| 20260831044138 | 60 | 104 | 1.0 | 1.0 | 0.00 | 0.00 | 0.00 | 94 | 967.7 |
| 20260831043703 | 60 | 104 | 1.0 | 1.0 | 0.00 | 0.00 | 0.00 | 94 | 967.6 |
| 20260831043238 | 60 | 104 | 1.0 | 1.0 | 0.00 | 0.00 | 0.00 | 94 | 967.5 |
| 20260831042758 | 60 | 104 | 1.0 | 1.0 | 0.00 | 0.00 | 0.00 | 94 | 967.6 |
| 20260831042308 | 60 | 104 | 1.0 | 5.0 | 0.00 | 0.00 | 0.00 | 94 | 967.4 |
| 20260831041858 | 60 | 102 | 4.0 | 0.0 | 0.00 | 0.00 | 0.00 | 94 | 967.3 |
| 20260831041423 | 60 | 102 | 2.0 | 0.0 | 0.00 | 0.00 | 0.00 | 94 | 967.7 |
| 20260831041003 | 60 | 103 | 1.0 | 0.0 | 0.00 | 0.00 | 0.00 | 94 | 967.5 |
| 20260831040533 | 60 | 103 | 1.0 | 0.0 | 0.00 | 0.00 | 0.00 | 94 | 967.7 |
| 20260831040128 | 60 | 103 | 1.0 | 0.0 | 0.00 | 0.00 | 0.00 | 94 | 967.7 |
| 20260831035643 | 60 | 103 | 1.0 | 5.0 | 0.00 | 0.00 | 0.00 | 94 | 967.7 |
| 20260831035213 | 60 | 103 | 1.0 | 5.0 | 0.00 | 0.00 | 0.00 | 94 | 967.8 |
| 20260831034758 | 60 | 103 | 2.0 | 5.0 | 0.00 | 0.00 | 0.00 | 94 | 968.0 |
| 20260831034313 | 60 | 107 | 2.0 | 5.0 | 0.00 | 0.00 | 0.00 | 94 | 968.2 |
| 20260831033823 | 60 | 105 | 8.0 | 5.0 | 0.00 | 0.00 | 0.00 | 94 | 968.3 |
| 20260831033353 | 60 | 105 | 8.0 | 5.0 | 0.00 | 0.00 | 0.00 | 94 | 968.5 |
| 20260831032923 | 60 | 105 | 1.0 | 13.0 | 0.00 | 0.00 | 0.00 | 88 | 968.4 |
| 20260831032503 | 60 | 105 | 1.0 | 5.0 | 0.00 | 0.00 | 0.00 | 88 | 968.8 |
| 20260831032047 | 60 | 231 | 1.0 | 25.0 | 0.00 | 0.00 | 0.00 | 88 | 968.9 |
| 20260831031558 | 60 | 250 | 1.0 | 13.0 | 0.00 | 0.00 | 0.00 | 88 | 968.1 |
| 20260831031113 | 61 | 102 | 1.0 | 3.0 | 0.00 | 0.00 | 0.00 | 86 | 967.2 |
| 20260831030613 | 61 | 102 | 1.0 | 3.0 | 0.00 | 0.00 | 0.00 | 85 | 966.4 |
| 20260831030128 | 61 | 239 | 1.0 | 3.0 | 0.00 | 0.00 | 0.00 | 85 | 966.3 |
| 20260831025658 | 61 | 239 | 0.0 | 3.0 | 0.00 | 0.00 | 0.00 | 85 | 966.8 |
| 20260831025228 | 61 | 239 | 3.0 | 5.0 | 0.00 | 0.00 | 0.00 | 85 | 966.8 |
| 20260831024759 | 61 | 239 | 3.0 | 3.0 | 0.00 | 0.00 | 0.00 | 85 | 966.7 |
| 20260831024338 | 61 | 239 | 1.0 | 1.0 | 0.00 | 0.00 | 0.00 | 85 | 966.8 |
| 20260831023923 | 61 | 239 | 1.0 | 1.0 | 0.00 | 0.00 | 0.00 | 85 | 966.8 |
| 20260831023438 | 61 | 239 | 0.0 | 3.0 | 0.00 | 0.00 | 0.00 | 85 | 966.6 |
| 20260831022958 | 61 | 239 | 0.0 | 1.0 | 0.00 | 0.00 | 0.00 | 85 | 966.8 |
| 20260831022518 | 61 | 239 | 0.0 | 3.0 | 0.00 | 0.00 | 0.00 | 85 | 966.8 |
| 20260831022023 | 61 | 239 | 0.0 | 0.0 | 0.00 | 0.00 | 0.00 | 85 | 966.9 |
| 20260831021553 | 60 | 239 | 0.0 | 1.0 | 0.00 | 0.00 | 0.00 | 85 | 967.1 |
| 20260831021138 | 60 | 239 | 0.0 | 1.0 | 0.00 | 0.00 | 0.00 | 85 | 966.9 |
| 20260831020719 | 60 | 239 | 0.0 | 0.0 | 0.00 | 0.00 | 0.00 | 85 | 967.4 |
| 20260831020239 | 60 | 239 | 0.0 | 0.0 | 0.00 | 0.00 | 0.00 | 85 | 967.0 |
| 20260831015758 | 60 | 239 | 0.0 | 1.0 | 0.00 | 0.00 | 0.00 | 85 | 967.1 |
| 20260831015305 | 60 | 239 | 0.0 | 1.0 | 0.00 | 0.00 | 0.00 | 85 | 967.1 |
| 20260831014833 | 60 | 239 | 0.0 | 1.0 | 0.00 | 0.00 | 0.00 | 85 | 967.1 |
| 20260831014358 | 60 | 239 | 0.0 | 1.0 | 0.00 | 0.00 | 0.00 | 85 | 967.2 |
| 20260831013933 | 60 | 239 | 0.0 | 1.0 | 0.00 | 0.00 | 0.00 | 85 | 967.3 |
| 20260831013508 | 60 | 239 | 0.0 | 1.0 | 0.00 | 0.00 | 0.00 | 85 | 967.4 |
| 20260831013023 | 59 | 239 | 1.0 | 1.0 | 0.00 | 0.00 | 0.00 | 85 | 967.4 |
| 20260831012619 | 59 | 239 | 0.0 | 3.0 | 0.00 | 0.00 | 0.00 | 85 | 967.2 |
| 20260831012203 | 59 | 239 | 0.0 | 1.0 | 0.00 | 0.00 | 0.00 | 85 | 967.5 |
| 20260831011739 | 59 | 239 | 1.0 | 0.0 | 0.00 | 0.00 | 0.00 | 85 | 967.6 |
| 20260831011318 | 59 | 239 | 2.0 | 0.0 | 0.00 | 0.00 | 0.00 | 88 | 967.4 |
| 20260831010858 | 58 | 239 | 0.0 | 0.0 | 0.00 | 0.00 | 0.00 | 88 | 967.7 |
| 20260831010419 | 58 | 239 | 0.0 | 1.0 | 0.00 | 0.00 | 0.00 | 88 | 967.5 |
| 20260831005933 | 58 | 239 | 0.0 | 1.0 | 0.00 | 0.00 | 0.00 | 88 | 967.6 |
| 20260831005458 | 58 | 239 | 0.0 | 0.0 | 0.00 | 0.00 | 0.00 | 88 | 967.7 |
| 20260831005019 | 58 | 239 | 0.0 | 3.0 | 0.00 | 0.00 | 0.00 | 88 | 967.9 |
| 20260831004538 | 58 | 239 | 0.0 | 3.0 | 0.00 | 0.00 | 0.00 | 88 | 967.9 |
| 20260831004113 | 58 | 239 | 0.0 | 1.0 | 0.00 | 0.00 | 0.00 | 88 | 968.1 |
| 20260831003643 | 58 | 239 | 1.0 | 3.0 | 0.00 | 0.00 | 0.00 | 88 | 968.0 |
| 20260831003213 | 58 | 239 | 0.0 | 0.0 | 0.00 | 0.00 | 0.00 | 89 | 968.1 |
| 20260831002728 | 58 | 239 | 0.0 | 0.0 | 0.00 | 0.00 | 0.00 | 88 | 968.1 |
| 20260831002253 | 58 | 282 | 0.0 | 1.0 | 0.00 | 0.00 | 0.00 | 88 | 968.2 |
| 20260831001843 | 58 | 282 | 0.0 | 1.0 | 0.00 | 0.00 | 0.00 | 88 | 968.2 |
| 20260831001419 | 58 | 282 | 0.0 | 1.0 | 0.00 | 0.00 | 0.00 | 86 | 968.4 |
| 20260831000958 | 58 | 282 | 0.0 | 1.0 | 0.00 | 0.00 | 0.00 | 86 | 968.5 |
| 20260831000533 | 58 | 282 | 0.0 | 1.0 | 0.00 | 0.00 | 0.00 | 86 | 968.3 |
| 20260831000119 | 57 | 282 | 0.0 | 1.0 | 0.00 | 0.00 | 0.00 | 86 | 968.2 |
| 20260830235643 | 57 | 282 | 0.0 | 1.0 | 0.00 | 0.00 | 0.00 | 86 | 968.4 |
| 20260830235203 | 59 | 282 | 0.0 | 1.0 | 0.00 | 0.00 | 0.00 | 86 | 968.4 |
| 20260830234748 | 59 | 282 | 0.0 | 1.0 | 0.00 | 0.00 | 0.00 | 86 | 968.6 |
| 20260830234318 | 59 | 282 | 0.0 | 1.0 | 0.00 | 0.00 | 0.00 | 86 | 968.5 |
| 20260830233858 | 59 | 282 | 0.0 | 1.0 | 0.00 | 0.00 | 0.00 | 86 | 968.5 |
| 20260830233448 | 59 | 282 | 1.0 | 1.0 | 0.00 | 0.00 | 0.00 | 86 | 968.5 |
| 20260830233023 | 58 | 282 | 1.0 | 1.0 | 0.00 | 0.00 | 0.00 | 86 | 968.6 |
| 20260830232608 | 58 | 282 | 1.0 | 1.0 | 0.00 | 0.00 | 0.00 | 86 | 968.4 |
| 20260830232123 | 58 | 282 | 0.0 | 1.0 | 0.00 | 0.00 | 0.00 | 86 | 968.7 |
| 20260830231708 | 58 | 282 | 0.0 | 1.0 | 0.00 | 0.00 | 0.00 | 86 | 968.7 |
| 20260830231223 | 59 | 282 | 0.0 | 1.0 | 0.00 | 0.00 | 0.00 | 86 | 968.6 |
| 20260830230808 | 59 | 282 | 0.0 | 1.0 | 0.00 | 0.00 | 0.00 | 86 | 968.6 |
| 20260830230333 | 60 | 282 | 0.0 | 1.0 | 0.00 | 0.00 | 0.00 | 85 | 968.8 |
| 20260830225843 | 60 | 282 | 0.0 | 1.0 | 0.00 | 0.00 | 0.00 | 81 | 968.8 |
| 20260830225403 | 60 | 282 | 0.0 | 1.0 | 0.00 | 0.00 | 0.00 | 81 | 968.7 |
| 20260830224939 | 60 | 282 | 0.0 | 1.0 | 0.00 | 0.00 | 0.00 | 81 | 968.9 |
| 20260830224459 | 60 | 282 | 0.0 | 1.0 | 0.00 | 0.00 | 0.00 | 81 | 968.7 |
| 20260830224026 | 60 | 282 | 0.0 | 1.0 | 0.00 | 0.00 | 0.00 | 81 | 968.8 |
| 20260830223548 | 60 | 282 | 0.0 | 1.0 | 0.00 | 0.00 | 0.00 | 81 | 968.7 |
| 20260830223108 | 60 | 282 | 1.0 | 1.0 | 0.00 | 0.00 | 0.00 | 81 | 968.8 |
| 20260830222638 | 60 | 282 | 0.0 | 1.0 | 0.00 | 0.00 | 0.00 | 81 | 969.0 |
| 20260830222213 | 60 | 282 | 0.0 | 1.0 | 0.00 | 0.00 | 0.00 | 81 | 969.0 |
| 20260830221753 | 60 | 282 | 0.0 | 0.0 | 0.00 | 0.00 | 0.00 | 81 | 968.9 |
| 20260830221308 | 60 | 282 | 0.0 | 0.0 | 0.00 | 0.00 | 0.00 | 81 | 968.8 |
| 20260830220848 | 60 | 282 | 0.0 | 0.0 | 0.00 | 0.00 | 0.00 | 81 | 968.9 |
| 20260830220353 | 60 | 282 | 1.0 | 1.0 | 0.00 | 0.00 | 0.00 | 81 | 968.8 |
| 20260830215918 | 60 | 282 | 1.0 | 1.0 | 0.00 | 0.00 | 0.00 | 81 | 969.0 |
| 20260830215423 | 61 | 282 | 1.0 | 1.0 | 0.00 | 0.00 | 0.00 | 81 | 968.9 |
| 20260830215018 | 61 | 282 | 1.0 | 1.0 | 0.00 | 0.00 | 0.00 | 74 | 969.0 |
| 20260830214539 | 61 | 282 | 0.0 | 1.0 | 0.00 | 0.00 | 0.00 | 74 | 968.8 |
| 20260830214138 | 62 | 282 | 0.0 | 1.0 | 0.00 | 0.00 | 0.00 | 74 | 968.8 |
| 20260830213713 | 62 | 282 | 0.0 | 1.0 | 0.00 | 0.00 | 0.00 | 74 | 968.7 |
| 20260830213233 | 63 | 282 | 0.0 | 1.0 | 0.00 | 0.00 | 0.00 | 74 | 968.9 |
| 20260830212818 | 63 | 282 | 0.0 | 1.0 | 0.00 | 0.00 | 0.00 | 74 | 968.7 |
| 20260830212328 | 63 | 282 | 1.0 | 1.0 | 0.00 | 0.00 | 0.00 | 74 | 968.8 |
| 20260830211859 | 63 | 282 | 1.0 | 1.0 | 0.00 | 0.00 | 0.00 | 74 | 968.8 |
| 20260830211433 | 63 | 282 | 0.0 | 1.0 | 0.00 | 0.00 | 0.00 | 74 | 968.8 |
| 20260830211008 | 63 | 282 | 1.0 | 1.0 | 0.00 | 0.00 | 0.00 | 74 | 969.1 |
| 20260830210543 | 63 | 282 | 2.0 | 1.0 | 0.00 | 0.00 | 0.00 | 74 | 968.7 |
| 20260830210113 | 63 | 282 | 1.0 | 1.0 | 0.00 | 0.00 | 0.00 | 74 | 968.9 |
| 20260830205658 | 63 | 282 | 1.0 | 1.0 | 0.00 | 0.00 | 0.00 | 74 | 968.9 |
| 20260830205228 | 65 | 282 | 0.0 | 1.0 | 0.00 | 0.00 | 0.00 | 74 | 969.0 |
| 20260830204739 | 65 | 282 | 0.0 | 1.0 | 0.00 | 0.00 | 0.00 | 74 | 968.8 |
| 20260830204318 | 65 | 261 | 1.0 | 1.0 | 0.00 | 0.00 | 0.00 | 74 | 969.0 |
| 20260830203838 | 65 | 261 | 1.0 | 1.0 | 0.00 | 0.00 | 0.00 | 74 | 968.6 |
| 20260830203348 | 65 | 261 | 2.0 | 1.0 | 0.00 | 0.00 | 0.00 | 74 | 968.8 |
| 20260830202919 | 65 | 261 | 2.0 | 1.0 | 0.00 | 0.00 | 0.00 | 63 | 968.6 |
| 20260830202518 | 65 | 261 | 1.0 | 1.0 | 0.00 | 0.00 | 0.00 | 63 | 968.9 |
| 20260830202038 | 65 | 261 | 1.0 | 1.0 | 0.00 | 0.00 | 0.00 | 63 | 968.9 |
| 20260830201558 | 65 | 261 | 2.0 | 1.0 | 0.00 | 0.00 | 0.00 | 63 | 968.7 |
| 20260830201133 | 65 | 261 | 2.0 | 3.0 | 0.00 | 0.00 | 0.00 | 63 | 969.0 |
| 20260830200713 | 65 | 261 | 0.0 | 3.0 | 0.00 | 0.00 | 0.00 | 63 | 969.0 |
| 20260830200243 | 65 | 261 | 0.0 | 3.0 | 0.00 | 0.00 | 0.00 | 63 | 969.1 |
| 20260830195823 | 65 | 261 | 0.0 | 3.0 | 0.00 | 0.00 | 0.00 | 63 | 969.0 |
| 20260830195353 | 65 | 261 | 1.0 | 3.0 | 0.00 | 0.00 | 0.00 | 63 | 969.0 |
| 20260830194918 | 66 | 261 | 1.0 | 3.0 | 0.00 | 0.00 | 0.00 | 63 | 968.9 |
| 20260830194438 | 66 | 261 | 1.0 | 3.0 | 0.00 | 0.00 | 0.00 | 63 | 969.0 |
| 20260830194018 | 66 | 261 | 1.0 | 1.0 | 0.00 | 0.00 | 0.00 | 63 | 968.8 |
| 20260830193553 | 66 | 261 | 1.0 | 1.0 | 0.00 | 0.00 | 0.00 | 63 | 969.0 |
| 20260830193058 | 66 | 259 | 1.0 | 1.0 | 0.00 | 0.00 | 0.00 | 63 | 969.0 |
| 20260830192629 | 67 | 259 | 2.0 | 3.0 | 0.00 | 0.00 | 0.00 | 63 | 968.9 |
| 20260830192139 | 67 | 165 | 1.0 | 3.0 | 0.00 | 0.00 | 0.00 | 63 | 968.9 |
| 20260830191653 | 67 | 165 | 2.0 | 1.0 | 0.00 | 0.00 | 0.00 | 63 | 969.1 |
| 20260830191213 | 68 | 165 | 1.0 | 3.0 | 0.00 | 0.00 | 0.00 | 63 | 969.0 |
| 20260830190743 | 68 | 165 | 1.0 | 3.0 | 0.00 | 0.00 | 0.00 | 63 | 968.8 |
| 20260830190246 | 69 | 180 | 0.0 | 3.0 | 0.00 | 0.00 | 0.00 | 63 | 968.9 |
| 20260830185758 | 69 | 180 | 1.0 | 3.0 | 0.00 | 0.00 | 0.00 | 63 | 968.9 |
| 20260830185300 | 69 | 180 | 0.0 | 1.0 | 0.00 | 0.00 | 0.00 | 59 | 969.0 |
| 20260830184839 | 69 | 180 | 0.0 | 1.0 | 0.00 | 0.00 | 0.00 | 59 | 968.7 |
| 20260830184403 | 71 | 180 | 0.0 | 1.0 | 0.00 | 0.00 | 0.00 | 59 | 968.8 |
| 20260830183944 | 71 | 180 | 1.0 | 1.0 | 0.00 | 0.00 | 0.00 | 59 | 968.8 |
| 20260830183508 | 71 | 180 | 0.0 | 1.0 | 0.00 | 0.00 | 0.00 | 59 | 968.7 |
| 20260830183033 | 71 | 180 | 0.0 | 1.0 | 0.00 | 0.00 | 0.00 | 51 | 968.5 |
| 20260830182628 | 71 | 180 | 0.0 | 1.0 | 0.00 | 0.00 | 0.00 | 51 | 968.7 |
| 20260830182158 | 71 | 180 | 0.0 | 1.0 | 0.00 | 0.00 | 0.00 | 51 | 968.5 |
| 20260830181748 | 72 | 180 | 0.0 | 1.0 | 0.00 | 0.00 | 0.00 | 51 | 968.7 |
| 20260830181253 | 72 | 180 | 0.0 | 0.0 | 0.00 | 0.00 | 0.00 | 51 | 968.3 |
| 20260830180818 | 72 | 180 | 1.0 | 0.0 | 0.00 | 0.00 | 0.00 | 51 | 968.3 |
| 20260830180348 | 72 | 180 | 2.0 | 0.0 | 0.00 | 0.00 | 0.00 | 51 | 968.3 |
| 20260830175910 | 72 | 180 | 2.0 | 1.0 | 0.00 | 0.00 | 0.00 | 51 | 968.4 |
| 20260830175443 | 72 | 178 | 1.0 | 1.0 | 0.00 | 0.00 | 0.00 | 51 | 968.2 |
| 20260830175008 | 74 | 178 | 0.0 | 1.0 | 0.00 | 0.00 | 0.00 | 51 | 968.3 |
| 20260830174519 | 74 | 322 | 0.0 | 7.0 | 0.00 | 0.00 | 0.00 | 51 | 968.2 |
| 20260830174028 | 74 | 322 | 2.0 | 7.0 | 0.00 | 0.00 | 0.00 | 51 | 968.2 |
| 20260830173538 | 74 | 322 | 4.0 | 7.0 | 0.00 | 0.00 | 0.00 | 51 | 968.3 |
| 20260830173113 | 74 | 322 | 3.0 | 1.0 | 0.00 | 0.00 | 0.00 | 51 | 968.2 |
| 20260830172652 | 74 | 322 | 4.0 | 1.0 | 0.00 | 0.00 | 0.00 | 51 | 968.1 |
| 20260830172218 | 74 | 322 | 1.0 | 7.0 | 0.00 | 0.00 | 0.00 | 51 | 968.2 |
| 20260830171733 | 74 | 322 | 2.0 | 3.0 | 0.00 | 0.00 | 0.00 | 47 | 968.2 |
| 20260830171258 | 74 | 322 | 1.0 | 5.0 | 0.00 | 0.00 | 0.00 | 47 | 968.2 |
| 20260830170818 | 74 | 127 | 1.0 | 1.0 | 0.00 | 0.00 | 0.00 | 47 | 968.2 |
| 20260830170358 | 75 | 127 | 1.0 | 7.0 | 0.00 | 0.00 | 0.00 | 47 | 968.0 |
| 20260830165913 | 75 | 311 | 0.0 | 7.0 | 0.00 | 0.00 | 0.00 | 47 | 968.2 |
| 20260830165439 | 75 | 286 | 3.0 | 3.0 | 0.00 | 0.00 | 0.00 | 46 | 968.2 |
| 20260830165013 | 75 | 181 | 1.0 | 5.0 | 0.00 | 0.00 | 0.00 | 45 | 968.0 |
| 20260830164528 | 75 | 181 | 4.0 | 5.0 | 0.00 | 0.00 | 0.00 | 45 | 967.9 |
| 20260830164048 | 75 | 231 | 4.0 | 13.0 | 0.00 | 0.00 | 0.00 | 45 | 968.1 |
| 20260830163628 | 75 | 266 | 1.0 | 3.0 | 0.00 | 0.00 | 0.00 | 44 | 968.0 |
| 20260830163200 | 75 | 329 | 4.0 | 5.0 | 0.00 | 0.00 | 0.00 | 44 | 968.1 |
| 20260830162728 | 75 | 329 | 4.0 | 5.0 | 0.00 | 0.00 | 0.00 | 45 | 968.1 |
| 20260830162308 | 75 | 329 | 1.0 | 5.0 | 0.00 | 0.00 | 0.00 | 45 | 968.2 |
| 20260830161848 | 75 | 329 | 2.0 | 5.0 | 0.00 | 0.00 | 0.00 | 41 | 968.1 |
| 20260830161418 | 75 | 329 | 1.0 | 5.0 | 0.00 | 0.00 | 0.00 | 41 | 968.1 |
| 20260830160933 | 75 | 329 | 2.0 | 3.0 | 0.00 | 0.00 | 0.00 | 41 | 968.1 |
| 20260830160503 | 77 | 329 | 3.0 | 3.0 | 0.00 | 0.00 | 0.00 | 41 | 968.1 |
| 20260830160028 | 77 | 329 | 3.0 | 13.0 | 0.00 | 0.00 | 0.00 | 41 | 967.9 |
| 20260830155549 | 77 | 329 | 8.0 | 13.0 | 0.00 | 0.00 | 0.00 | 41 | 968.2 |
| 20260830155059 | 77 | 329 | 2.0 | 13.0 | 0.00 | 0.00 | 0.00 | 41 | 968.2 |
| 20260830154638 | 77 | 298 | 5.0 | 14.0 | 0.00 | 0.00 | 0.00 | 41 | 968.5 |
| 20260830154203 | 77 | 114 | 9.0 | 20.0 | 0.00 | 0.00 | 0.00 | 41 | 967.9 |
| 20260830153728 | 76 | 101 | 9.0 | 11.0 | 0.00 | 0.00 | 0.00 | 41 | 968.2 |
| 20260830153313 | 76 | 168 | 4.0 | 11.0 | 0.00 | 0.00 | 0.00 | 41 | 968.2 |
| 20260830152839 | 76 | 238 | 5.0 | 13.0 | 0.00 | 0.00 | 0.00 | 41 | 968.3 |
| 20260830152403 | 76 | 277 | 6.0 | 14.0 | 0.00 | 0.00 | 0.00 | 41 | 968.3 |
| 20260830151938 | 76 | 277 | 7.0 | 16.0 | 0.00 | 0.00 | 0.00 | 41 | 968.3 |
| 20260830151513 | 76 | 227 | 7.0 | 14.0 | 0.00 | 0.00 | 0.00 | 41 | 968.3 |
| 20260830151028 | 75 | 331 | 4.0 | 13.0 | 0.00 | 0.00 | 0.00 | 41 | 968.4 |
| 20260830150553 | 75 | 331 | 19.0 | 14.0 | 0.00 | 0.00 | 0.00 | 41 | 968.3 |
| 20260830150128 | 76 | 357 | 4.0 | 14.0 | 0.00 | 0.00 | 0.00 | 41 | 968.0 |
| 20260830145648 | 76 | 357 | 4.0 | 14.0 | 0.00 | 0.00 | 0.00 | 41 | 968.3 |
| 20260830145208 | 76 | 357 | 4.0 | 20.0 | 0.00 | 0.00 | 0.00 | 41 | 968.4 |
| 20260830144758 | 76 | 42 | 8.0 | 16.0 | 0.00 | 0.00 | 0.00 | 41 | 968.2 |
| 20260830144333 | 76 | 42 | 4.0 | 9.0 | 0.00 | 0.00 | 0.00 | 39 | 968.2 |
| 20260830143848 | 77 | 246 | 5.0 | 18.0 | 0.00 | 0.00 | 0.00 | 39 | 968.4 |
| 20260830143413 | 77 | 203 | 13.0 | 11.0 | 0.00 | 0.00 | 0.00 | 41 | 968.3 |
| 20260830143003 | 77 | 203 | 1.0 | 11.0 | 0.00 | 0.00 | 0.00 | 41 | 968.5 |
| 20260830142558 | 77 | 71 | 13.0 | 14.0 | 0.00 | 0.00 | 0.00 | 41 | 968.4 |
| 20260830142123 | 77 | 99 | 7.0 | 22.0 | 0.00 | 0.00 | 0.00 | 41 | 968.4 |
| 20260830141643 | 77 | 101 | 7.0 | 16.0 | 0.00 | 0.00 | 0.00 | 41 | 968.3 |
| 20260830141213 | 77 | 101 | 4.0 | 18.0 | 0.00 | 0.00 | 0.00 | 41 | 968.8 |
| 20260830140743 | 77 | 101 | 9.0 | 18.0 | 0.00 | 0.00 | 0.00 | 41 | 968.3 |
| 20260830140328 | 77 | 101 | 11.0 | 20.0 | 0.00 | 0.00 | 0.00 | 41 | 968.5 |
| 20260830135838 | 77 | 330 | 8.0 | 20.0 | 0.00 | 0.00 | 0.00 | 44 | 968.4 |
| 20260830135418 | 76 | 287 | 6.0 | 20.0 | 0.00 | 0.00 | 0.00 | 44 | 968.3 |
| 20260830134928 | 78 | 287 | 11.0 | 16.0 | 0.00 | 0.00 | 0.00 | 44 | 968.3 |